Regional Weather Roundup
Issued by NWS Nashville, TN

Current Version | Previous Version | Text Only | Print | Product List | Glossary Off
Versions: 1 2 3 4 5 6 7 8 9 10 11 12 13 14 15 16 17 18 19 20 21 22 23 24 25 26 27 28 29 30 31 32 33 34 35 36 37 38 39 40 41 42 43 44 45 46 47 48 49 50

000
ASUS44 KOHX 291215
RWROHX
MIDDLE TENNESSEE HOURLY WEATHER ROUNDUP
NATIONAL WEATHER SERVICE NASHVILLE TN
700 AM CDT SUN MAR 29 2015

NOTE: "FAIR" INDICATES FEW OR NO CLOUDS BELOW 12,000 FEET WITH
NO SIGNIFICANT WEATHER AND/OR OBSTRUCTIONS TO VISIBILITY.

* THESE REPORTS ARE NOT UNDER NWS QUALITY CONTROL AND MAY NOT
  REPORT WEATHER SUCH AS PRECIPITATION AND FOG.


TNZ005>011-023>034-057-059-062>066-078-080-291300
...NORTHERN MIDDLE TENNESSEE...

CITY           SKY/WX    TMP DP  RH WIND       PRES   REMARKS
CLARKSVILLE    PTCLDY    23  18  81 SE6       30.31S WCI  16
CROSSVILLE     CLEAR     26  14  60 E5        30.31R WCI  20
GALLATIN         N/A     23  20  89 CALM      30.35S
LIVINGSTON       N/A     29  14  53 SE6       30.31F WCI  23
NASHVILLE      PTCLDY    28  18  66 SE6       30.34S WCI  22
PORTLAND       CLEAR     25  16  68 SE7       30.31R WCI  17
SMYRNA         CLEAR     22  20  92 CALM      30.36S
SPARTA         CLEAR     18  16  93 CALM      30.32S
$$
TNZ056-058-060-061-075>077-079-093>097-291300
...SOUTHERN MIDDLE TENNESSEE...

CITY           SKY/WX    TMP DP  RH WIND       PRES   REMARKS
COLUMBIA       CLEAR     21  21 100 CALM      30.30R
LEWISBURG      CLEAR     18  15  88 CALM      30.32S
MCMINNVILLE    CLEAR     21  18  86 NE24      30.32S SQUALL  WCI   4
MURFREESBORO   CLEAR     24  19  81 CALM      30.34R
SHELBYVILLE    CLEAR     25  18  74 E6        30.34S WCI  18
TULLAHOMA      CLEAR     21  16  79 CALM      30.33R
WINCHESTER     CLEAR     27  16  63 SE5       30.34S WCI  21
$$


...KEY TO REMARKS...
VSB - VISIBILITY IN MILES
WCI - WIND CHILL INDEX
HX  - HEAT INDEX



USA.gov is the U.S. government's official web portal to all federal, state and local government web resources and services.